Miscellaneous Local Product
Issued by NWS North Platte, NE

Home | Current Version | Previous Version | Text Only | Print | Product List | Glossary On
Versions: 1 2 3 4 5 6 7 8 9 10 11 12 13 14 15 16 17 18 19 20 21 22 23 24 25 26 27 28 29 30 31 32 33 34 35 36 37 38 39 40 41 42 43 44 45 46 47 48 49 50
000
AXUS43 KLBF 211610
MISLBF


WESTERN AND NORTH CENTRAL NEBRASKA HOURLY WEATHER ROUNDUP
NATIONAL WEATHER SERVICE NORTH PLATTE NE
1100 AM CDT THU JUL 21 2016

NOTE: "FAIR" INDICATES FEW OR NO CLOUDS BELOW 12,000 FEET WITH NO
SIGNIFICANT WEATHER AND/OR OBSTRUCTIONS TO VISIBILITY.

NOTE: STATIONS NOT REPORTING VARIABLES SUCH AS SKY/WEATHER OR
PRESSURE ARE PROVIDED BY RAWS AND APRS NETWORKS AND ARE NOT UNDER
NATIONAL WEATHER SERVICE QUALITY CONTROL.

...OBSERVATIONS IN AND NEAR THE EASTERN PANHANDLE OF NEBRASKA...

CITY           SKY/WX    TMP DP  RH WIND       PRES   REMARKS
PINE RIDGE     PTSUNNY   81  64  56 VRB5      30.06R
CHADRON        CLOUDY    85  61  44 N9        30.07R
ALLIANCE       CLOUDY    85  53  33 NW5       30.10S
SIDNEY         SUNNY     90  49  24 N14       30.17R
$$

...OBSERVATIONS IN NORTHERN NEBRASKA AND FAR SOUTHERN SOUTH DAKOTA...

CITY           SKY/WX    TMP DP  RH WIND       PRES   REMARKS
WINNER         FAIR      90  67  46 NW13      29.91R HX  93
VALENTINE      SUNNY     91  64  40 N10       29.95R HX  92
THEDFORD       CLOUDY    93  62  35 W9        30.00S HX  93
AINSWORTH      CLOUDY    90  64  41 W5        29.95F HX  91
O`NEILL        MOSUNNY   91  61  37 W9        29.92S HX  91
ORD            CLOUDY    83  69  62 SW9       29.93F
BROKEN BOW     MOSUNNY   80  69  69 CALM      29.99F
VALENTINE NWR    N/A     85  62  45 W6G13       N/A
BUTTE            N/A     87  70  56 NE9         N/A  HX  91
HALSEY           N/A     84  65  52 SW5         N/A
EWING            N/A     86  72  63 CALM        N/A  HX  92
$$

...OBSERVATIONS IN SOUTHWEST NEBRASKA AND FAR NORTHEAST COLORADO...

CITY           SKY/WX    TMP DP  RH WIND       PRES   REMARKS
WRAY           FAIR      90  55  31 W12       30.11
HOLYOKE        FAIR      88  59  37 W6        30.11S
IMPERIAL       SUNNY     86  59  39 NW8       30.07S
OGALLALA       CLOUDY    83  63  51 S3        30.06S
NORTH PLATTE   CLOUDY    77  68  73 S5        30.03S
MCCOOK         SUNNY     89  63  41 NW3       30.00F HX  90
LEXINGTON      MOSUNNY   84  69  60 NE3       30.00S
STAPLETON        N/A     80  67  65 CALM        N/A
GOTHENBURG       N/A     77  64  63 CALM        N/A
CALLAWAY         N/A     77  67  70 W8          N/A
$$

...OBSERVATIONS IN CENTRAL LINCOLN COUNTY AREA...

CITY           SKY/WX    TMP DP  RH WIND       PRES   REMARKS
N.P. AIRPORT   CLOUDY    77  68  73 S5        30.03S
N.P. DOWNTOWN    N/A     78  67  68 CALM        N/A
N.P. HILLCREST   N/A     77  67  71 NW7         N/A
$$

...SOME OBSERVATIONS FROM AROUND THE REGION...

CITY           SKY/WX    TMP DP  RH WIND       PRES   REMARKS
DENVER         MOSUNNY   85  49  28 CALM      30.26S
LARAMIE        SUNNY     74  45  35 VRB5      30.41S
CHEYENNE       SUNNY     84  41  21 NW13G22   30.30R
SCOTTSBLUFF    MOSUNNY   85  51  31 W9        30.13S
RAPID CITY     SUNNY     83  68  60 N13       30.08S
BISMARCK       CLOUDY    82  61  48 NE10      29.99F
PIERRE         SUNNY     87  73  62 E22       29.92R HX  94
SIOUX FALLS    MOSUNNY   86  73  65 E9        29.88S HX  93
OMAHA          MOSUNNY   90  72  55 SW14G25   29.91F HX  97
GRAND ISLAND   SUNNY     90  70  51 SW15      29.97S HX  95
KANSAS CITY    SUNNY     90  76  63 SW14      30.05F HX 101
WICHITA        SUNNY     91  70  49 S16       30.06F HX  96
OKLAHOMA CITY  SUNNY     90  69  50 S15       30.12F HX  94
DALLAS         MOSUNNY   92  68  45 S10       30.15R HX  96
AMARILLO       SUNNY     89  59  36 SW17G29   30.21S
DODGE CITY     SUNNY     90  63  40 SW18G26   30.06F HX  91
HAYS           SUNNY     91  64  40 S14       30.00S HX  93
GOODLAND       SUNNY     92  55  28 N13       30.09S HX  90
$$




USA.gov is the U.S. government's official web portal to all federal, state and local government web resources and services.